Skip Navigation Linkswww.weather.gov 
NOAA logo - Click to go to the NOAA homepage National Weather Service Forecast Office   NWS logo - Click to go to the NWS homepage    
Los Angeles, California
navigation bar decoration      
spacer
Printer Friendly  |   Go Back  |  Version: Current   1   2   3   4   5   6   7   8   9   10   |  Font:  A A A  |  
This version is NOT current and may no longer be valid!

HOURLY WEATHER ROUNDUP
 
 ASUS46 KSTO 031209
RWRCA

NORTHERN AND CENTRAL CA REGIONAL WEATHER ROUNDUP
NATIONAL WEATHER SERVICE SACRAMENTO CA
400 AM PST TUE MAR 03 2015

NOTE: FAIR INDICATES FEW OR NO CLOUDS BELOW 12,000 FEET WITH NO
SIGNIFICANT WEATHER AND/OR OBSTRUCTIONS TO VISIBILITY.

CAZ001-003-031300-
NORTHWEST AREA

CITY SKY/WX TMP DP RH WIND PRES REMARKS
CRESCENT CITY CLEAR 41 36 82 CALM 30.07S
ARCATA NOT AVBL
SHELTER COVE NOT AVBL
UKIAH CLEAR 39 34 82 CALM 30.02S
$$

CAZ006-505>513-031300-
BAY AREA

CITY SKY/WX TMP DP RH WIND PRES REMARKS
SANTA ROSA CLEAR 39 38 96 NW6 29.99S WCI 35
SAN RAFAEL N/A 44 MM MM MISG
NAPA CLEAR 39 37 92 N5 30.00S
CONCORD CLEAR 43 39 86 S5 30.00S
OAKLAND CITY N/A 49 MM MM MISG
OAKLAND CLEAR 44 40 85 CALM 29.99F
SAN FRAN CITY N/A 50 MM 78 MISG
SAN FRAN ARPT CLEAR 49 46 90 SW5 29.99F
LIVERMORE CLEAR 40 36 86 E3 29.99F
HAYWARD CLEAR 46 40 79 E5 29.99F
REDWOOD CITY N/A MM MM MM MISG
MOFFETT ARPT CLEAR 42 39 89 CALM 30.00F
SAN JOSE ARPT CLEAR 41 37 86 E3 30.00S
$$
CAZ034-037-514>518-031300-
CENTRAL COAST

CITY SKY/WX TMP DP RH WIND PRES REMARKS
WATSONVILLE CLEAR 43 39 86 N3 30.01R
SALINAS CLEAR 43 39 86 CALM 30.00S
MONTEREY CLEAR 44 39 82 E7 29.99S
PT PIEDRAS BLS NOT AVBL
SAN LUIS OBISP CLEAR 39 38 96 SE3 29.96F
SANTA MARIA CLEAR 40 37 89 CALM 29.96F
$$
CAZ015-016-031300-
NORTHERN SACRAMENTO VALLEY

CITY SKY/WX TMP DP RH WIND PRES REMARKS
REDDING CLOUDY 43 39 86 CALM 30.01F
RED BLUFF CLEAR 39 35 86 NW6 30.03S WCI 35
OROVILLE CLEAR 43 37 79 NW3 30.02S
$$
CAZ016>018-031300-
SOUTHERN SACRAMENTO VALLEY

CITY SKY/WX TMP DP RH WIND PRES REMARKS
AUBURN CLEAR 39 36 87 E7 29.98F WCI 34
BEALE AFB CLEAR 45 38 78 E7 29.99S
LINCOLN FAIR 36 36 100 E7 29.99R WCI 30
MARYSVILLE CLEAR 43 37 79 NE6 30.01R
SAC INTL ARPT CLEAR 36 34 92 CALM 29.99F
MATHER AIRPORT CLEAR 43 39 87 NE5 29.99F
DOWNTOWN SAC N/A 44 MM MM MISG
SAC EXEC ARPT CLEAR 43 40 89 CALM 29.99F
VACAVILLE CLEAR 42 38 85 CALM 30.00F
TRAVIS AFB CLEAR 38 37 95 CALM 29.98S
$$
CAZ019>021-031300-
SAN JOAQUIN VALLEY

CITY SKY/WX TMP DP RH WIND PRES REMARKS
STOCKTON CLEAR 39 37 92 CALM 29.98F
MODESTO CLEAR 43 40 89 CALM 29.98F
MERCED FOG 35 34 96 CALM 29.99R VSB 1
LEMOORE CLEAR 34 32 92 NW8 29.99S WCI 27
FRESNO CLEAR 42 39 89 NW3 29.99R
HANFORD CLEAR 42 39 89 NW5 29.99S
PORTERVILLE CLEAR 37 34 87 E3 29.97S
BAKERSFIELD CLOUDY 48 43 82 S3 29.97R
$$
CAZ011-012-071-031300-
NORTHERN MOUNTAINS

CITY SKY/WX TMP DP RH WIND PRES REMARKS
YREKA CLEAR 29 25 85 CALM N/A
MOUNT SHASTA CLEAR 32 27 81 N3 30.01S
ALTURAS MOCLDY 28 18 66 N5 30.01R WCI 23
$$
CAZ011-012-071-031300-
SIERRA NEVADA MTNS

CITY SKY/WX TMP DP RH WIND PRES REMARKS
BLUE CANYON CLEAR 33 26 75 NE5 29.96F WCI 29
TRUCKEE PTCLDY 19 18 93 CALM 29.96S
TAHOE VLY ARPT PTCLDY 24 16 71 S5 29.93F WCI 18
MAMMOTH LAKES FAIR 19 18 93 CALM 29.92S
$$



Webmaster
US Dept of Commerce
National Oceanic and Atmospheric Administration
National Weather Service
Los Angeles/Oxnard Weather Forecast Office
520 North Elevar Street
Oxnard, CA 93030

Tel: (805) 988-6610

Disclaimer
Information Quality
Credits
Glossary
Organization
Privacy Policy
Freedom of Information Act
About Us
Career Opportunities